Home > Weather > Miskolc > Past weeks

Flag for Hungary Past Weather in Miskolc, Hungary — Yesterday and Last 2 Weeks

Now
57 °F

Sunny.


Feels Like: 57 °F
Forecast: 54 / 83 °F
Wind: 1 mph from Southwest

Location: Miskolc

Current Time: Aug 26, 2016 at 7:23:41 AM

Latest Report: Aug 26, 2016 at 6:00 AM


Visibility: 19 mi

Pressure: 30.23 "Hg

Humidity: 82%

Dew Point: 51 °F

Location of MiskolcLocation

Past Weather in Miskolc — Graph

°F

Miskolc Temperature Yesterday

Maximum temperature yesterday: 80 °F (at 4:00 PM)
Minimum temperature yesterday: 58 °F (at 6:00 AM)
Average temperature yesterday: 69 °F

High & Low Weather Summary for the Past Weeks

 TemperatureHumidityPressure
High85 °F (Aug 20, 3:00 PM)93% (Aug 22, 3:00 AM)30.29 "Hg (Aug 22, 3:00 AM)
Low49 °F (Aug 12, 6:00 AM)32% (Aug 12, 5:00 PM)29.87 "Hg (Aug 17, 4:00 PM)
Average66 °F69%30.10 "Hg
* Reported Aug 11 6:00 AM — Aug 26 6:00 AM, Miskolc, Weather by CustomWeather, © 2016

Note: Actual official high and low records may vary slightly from our data, if they occured in-between our weather recording intervals... More about our weather records

Advertising

Miskolc Weather History for the Previous 24 Hours

Scroll right to see more
 ConditionsComfort  
Time TempWeatherWind HumidityBarometerVisibility
6:00 AM
Fri, Aug 26
57 °FSunny.1 mph82%30.23 "Hg19 mi
5:00 AM58 °FClear.1 mph80%30.22 "Hg19 mi
4:00 AM59 °FClear.2 mph77%30.22 "Hg19 mi
3:00 AM59 °FClear.2 mph80%30.23 "Hg19 mi
2:00 AM59 °FClear.1 mph80%30.23 "Hg19 mi
1:00 AM60 °FClear.1 mph79%30.24 "Hg19 mi
12:00 AM62 °FClear.1 mph75%30.23 "Hg19 mi
11:00 PM
Thu, Aug 25
63 °FClear.1 mph73%30.22 "Hg25 mi
10:00 PM64 °FClear.No wind69%30.22 "Hg25 mi
9:00 PM66 °FClear.1 mph67%30.21 "Hg25 mi
8:00 PM71 °FClear.1 mph54%30.18 "Hg25 mi
7:00 PM76 °FPassing clouds.2 mph44%30.16 "Hg28 mi
6:00 PM78 °FPassing clouds.2 mph41%30.16 "Hg28 mi
5:00 PM79 °FPassing clouds.3 mph39%30.17 "Hg28 mi
4:00 PM80 °FPassing clouds.3 mph38%30.17 "Hg28 mi
3:00 PM80 °FPassing clouds.2 mph38%30.18 "Hg28 mi
2:00 PM78 °FPassing clouds.2 mph44%30.19 "Hg28 mi
1:00 PM78 °FPassing clouds.2 mph47%30.19 "Hg28 mi
12:00 PM77 °FPassing clouds.3 mph48%30.21 "Hg28 mi
11:00 AM75 °FPassing clouds.2 mph52%30.22 "Hg25 mi
10:00 AM71 °FSunny.3 mph58%30.23 "Hg25 mi
9:00 AM69 °FSunny.2 mph59%30.23 "Hg25 mi
8:00 AM66 °FSunny.2 mph67%30.23 "Hg22 mi
7:00 AM60 °FSunny.1 mph79%30.24 "Hg22 mi
Weather by CustomWeather, © 2016

See weather overviewHow to use our weather pages